Preview of NWS' New Version of Forecast
This preview is not operational and should not be used for support decisions.

Regional Weather Roundup (RWR)

Issued by National Weather Service (NWS)

                            
000
ASUS43 KMKX 192320
RWRWI 

WISCONSIN REGIONAL WEATHER ROUNDUP
NATIONAL WEATHER SERVICE MILWAUKEE/SULLIVAN WI
500 PM CST TUE FEB 19 2019

NOTE: "FAIR" INDICATES FEW OR NO CLOUDS BELOW 12,000 FEET WITH NO
SIGNIFICANT WEATHER AND/OR OBSTRUCTIONS TO VISIBILITY.

WIZ001-002-006>008-014>016-023>028-200000-
NORTHWEST WISCONSIN
  
CITY           SKY/WX    TMP DP  RH WIND       PRES   REMARKS
SUPERIOR ARPT  FAIR      22   0  38 SW9       30.35F WCI  12          
ASHLAND        FAIR      21   1  41 SW7       30.35F WCI  12          
HAYWARD        FAIR      19   3  49 S7        30.35F WCI  10          
SIREN          FAIR      18  -1  45 SW3       30.37F                  
CUMBERLAND     FAIR      14   0  52 SW3       30.36F                  
RICE LAKE      FAIR      18   4  54 SE3       30.39F                  
CHETEK         FAIR      18   3  52 S3        30.39S                  
LADYSMITH      FAIR      20   4  51 S5        30.39S WCI  13          
EAU CLAIRE     FAIR      18   4  54 W6        30.40F WCI  10          
MENOMONIE      FAIR      10   0  61 E5        30.40F WCI   2          
NEW RICHMOND   FAIR      16   2  54 SE3       30.39F                  
OSCEOLA        FAIR      16   6  64 E7        30.41F WCI   6          
$$
 
WIZ003>005-009-010-017-018-200000-
NORTH CENTRAL WISCONSIN
  
CITY           SKY/WX    TMP DP  RH WIND       PRES   REMARKS
MANITOWISH WTR NOT AVBL                                               
ARBOR VITAE    FAIR      22   6  50 SW3       30.31F                  
WOODRUFF       FAIR      22   6  50 SW3       30.31F                  
RHINELANDER    FAIR      23   1  38 SW6       30.33F WCI  16          
EAGLE RIVER    FAIR      23   7  52 CALM      30.31F                  
LAND O LAKES   FAIR      22  10  60 CALM      30.32S                  
PHILLIPS       FAIR      20   1  43 SW7       30.33F WCI  11          
TOMAHAWK       FAIR      20   3  47 CALM      30.35F                  
MEDFORD        FAIR      15   3  60 S6        30.36S WCI   6          
MERRILL        FAIR      19   4  52 SW3       30.37F                  
$$
 
WIZ029-030-035-036-043>047-200000-
CENTRAL WISCONSIN
  
CITY           SKY/WX    TMP DP  RH WIND       PRES   REMARKS
WAUSAU         FAIR      21   3  45 CALM      30.37F                  
MOSINEE        CLEAR     19   7  58 VRB5      30.39F WCI  13          
MARSHFIELD     FAIR      20   5  52 E6        30.37F WCI  12          
STEVENS POINT  FAIR      21   6  53 SE3       30.40F                  
WAUPACA        FAIR      25  11  57 SE5       30.44S WCI  19          
WAUTOMA        FAIR      24  11  57 S7        30.43F WCI  16          
WISC RAPIDS    FAIR      23   4  44 SW3       30.41F                  
CAMP DOUGLAS   MOCLDY    21   9  58 SE3       30.40F                  
$$
 
WIZ011>013-019>022-031-037>040-048>050-200000-
NORTHEAST WISCONSIN
  
CITY           SKY/WX    TMP DP  RH WIND       PRES   REMARKS
ANTIGO         FAIR      16   3  58 SW5       30.37S WCI   8          
SHAWANO        FAIR      28   7  42 S5        30.43S WCI  23          
OCONTO         FAIR      23   9  56 S3        30.45S                  
STURGEON BAY   FAIR      23  11  60 SW7       30.46F WCI  15          
GREEN BAY      FAIR      23  10  57 S8        30.45F WCI  14          
MANITOWOC      FAIR      24  14  65 S9        30.47F WCI  14          
APPLETON       PTCLDY    21   9  58 VRB6      30.42F WCI  14          
CLINTONVILLE   FAIR      24   7  48 S6        30.43F WCI  16          
OSHKOSH        FAIR      22  12  65 CALM      30.44F                  
$$
 
WIZ032>034-041-042-053>061-200000-
SOUTHWEST WISCONSIN
  
CITY           SKY/WX    TMP DP  RH WIND       PRES   REMARKS
LA CROSSE      FAIR      21   8  57 W3        30.42F                  
SPARTA         FAIR      24  10  56 CALM      30.42F                  
VIROQUA        FAIR      22  12  66 CALM      30.38R                  
BOSCOBEL       FAIR      25  11  55 S7        30.45S WCI  17          
PRAIRIE DU CHI FAIR      22  10  59 E6        30.44S WCI  15          
PLATTEVILLE    FAIR      20  15  80 E6        30.44S WCI  12          
$$

WIZ056-057-062-063-064-067-068-200000-
SOUTH CENTRAL WISCONSIN
  
CITY           SKY/WX    TMP DP  RH WIND       PRES   REMARKS
REEDSBURG      FAIR      23  10  58 S5        30.43R WCI  17          
BARABOO/DELLS  FAIR      20  10  65 S9        30.44R WCI  10          
LONE ROCK      FAIR      20  10  65 S9        30.45R WCI   9          
MINERAL POINT  FAIR      23  16  74 SE5       30.43R WCI  17          
MADISON        MOCLDY    23  12  62 S8        30.46R WCI  14          
MIDDLETON      FAIR      25  14  63 S8        30.45R WCI  16          
WATERTOWN      FAIR      23  12  63 S3        30.46R                  
MONROE         FAIR      21  14  73 MISG      30.43F                  
JANESVILLE     CLOUDY    25  16  68 SE9       30.47S WCI  15          
$$
 
WIZ051-052-058>065-066-070>072-200000-
SOUTHEAST WISCONSIN
  
CITY           SKY/WX    TMP DP  RH WIND       PRES   REMARKS
MILWAUKEE      MOCLDY    26  14  60 SE9       30.48S WCI  17          
WAUKESHA       CLEAR     25   9  50 S6        30.47S WCI  18          
MILWAUKEE/TIMM CLEAR     27   7  43 S6        30.47F WCI  20          
RACINE         FAIR      26  13  57 SE8       30.50F WCI  18          
KENOSHA        FAIR      26  16  65 SE7       30.48F WCI  18          
FOND DU LAC    FAIR      23  12  62 S5        30.44F WCI  17          
SHEBOYGAN      FAIR      23  11  60 S6        30.46F WCI  16          
WEST BEND      FAIR      27  14  59 SE8       30.45S WCI  18          
JUNEAU         FAIR      20  12  71 S3        30.46S                  
$$

LSZ147-162-200000-
LAKE SUPERIOR
  
STATION/POSITION TIME  TEMP    WIND        PRES    WAVE
                       AIR SEA DIR/SP/G            HT/PER
                 (UTC) (F)     (DEG/KT/KT) (MB)    (FT/S)
DEVILS ISLAND    2300   19     240/  4/  4 1029.1F
SAXON HARBOR     2240   20      CALM  /  3 1027.8F
$$
 
LMZ867-665-643>646-200000-
LAKE MICHIGAN
  
STATION/POSITION TIME  TEMP    WIND        PRES    WAVE
                       AIR SEA DIR/SP/G            HT/PER
                 (UTC) (F)     (DEG/KT/KT) (MB)    (FT/S)
CHAMBERS ISLAND  2240   21     190/  5/  9 1030.1F
NORTHPORT PIER   2300   23     190/  1/  8 1030.5
KEWAUNEE LAKESHO 2254   25     160/  8/ 10 1030.4F
SHEBOYGAN LAKESH 2300   26     170/ 10/ 11 1032.6F
PORT WASHINGTON  2230   28     150/  8/ 10 1032.8F
MILWAUKEE LAKESH 2250   26     140/  8/  9   N/A
KENOSHA   LAKESH 2300   27     150/  8/  9 1032.5
$$

TC  - TEMPERATURE IN CELSIUS
VSB - VISIBILITY IN STATUTE MILES
WCI - WIND CHILL INDEX
HX  - HEAT INDEX